This is the latest recevied weather packets stored in our database for station/object SP9TKN-1. If no packets are shown the sender has not sent any weather packets the latest 10 day(s).
| Time | Temp. | Humidity | Pressure | Rain* | Wind** | Luminosity | Snow |
|---|---|---|---|---|---|---|---|
| 1777996875 | 22.78° C | 18% | 1007.1 hPa | - | - | - | - |
| 1777995976 | 23.33° C | 18% | 1007.2 hPa | - | - | - | - |
| 1777995074 | 23.33° C | 17% | 1007.2 hPa | - | - | - | - |
| 1777994174 | 23.89° C | 15% | 1007.3 hPa | - | - | - | - |
| 1777993275 | 23.89° C | 18% | 1007.3 hPa | - | - | - | - |
| 1777992375 | 24.44° C | 13% | 1007.2 hPa | - | - | - | - |
| 1777991475 | 24.44° C | 17% | 1007.2 hPa | - | - | - | - |
| 1777990573 | 24.44° C | 15% | 1007.3 hPa | - | - | - | - |
| 1777989674 | 24.44° C | 15% | 1007.4 hPa | - | - | - | - |
| 1777988775 | 24.44° C | 16% | 1007.5 hPa | - | - | - | - |
| 1777987874 | 25° C | 17% | 1007.4 hPa | - | - | - | - |
| 1777986974 | 25° C | 11% | 1007.6 hPa | - | - | - | - |
| 1777986074 | 25° C | 11% | 1007.9 hPa | - | - | - | - |
| 1777985174 | 25.56° C | 12% | 1008 hPa | - | - | - | - |
| 1777984274 | 25° C | 18% | 1008.1 hPa | - | - | - | - |
| 1777983374 | 25° C | 16% | 1008.2 hPa | - | - | - | - |
| 1777982474 | 24.44° C | 23% | 1008.4 hPa | - | - | - | - |
| 1777981574 | 23.89° C | 24% | 1008.6 hPa | - | - | - | - |
| 1777980674 | 23.89° C | 20% | 1008.6 hPa | - | - | - | - |
| 1777979773 | 23.89° C | 16% | 1008.7 hPa | - | - | - | - |
| 1777978873 | 24.44° C | 15% | 1009.1 hPa | - | - | - | - |
| 1777977973 | 25° C | 16% | 1008.9 hPa | - | - | - | - |
| 1777977073 | 24.44° C | 17% | 1009.1 hPa | - | - | - | - |
| 1777976174 | 24.44° C | 18% | 1009.3 hPa | - | - | - | - |
| 1777975273 | 23.89° C | 18% | 1009.3 hPa | - | - | - | - |
* Rain since midnight (hover to see other rain measurements)
** Current wind speed in m/s (hover to see current wind gust speed)